Regional Weather Roundup
Issued by NWS Huntsville, AL

Home | Current Version | Previous Version | Text Only | Print | Product List | Glossary On
Versions: 1 2 3 4 5 6 7 8 9 10 11 12 13 14 15 16 17 18 19 20 21 22 23 24 25 26 27 28 29 30 31 32 33 34 35 36 37 38 39 40 41 42 43 44 45 46 47 48 49 50
000
ASUS44 KHUN 282110
RWRHUN

WEATHER ROUNDUP FOR THE TENNESSEE VALLEY
NATIONAL WEATHER SERVICE HUNTSVILLE AL
400 PM CDT THU APR 28 2016

ALZ001>004-282200-
NORTHWEST ALABAMA

CITY           SKY/WX    TMP DP  RH WIND       PRES   REMARKS
COURTLAND HCN    N/A     84 N/A N/A SW10        N/A
RUSSELLVILLE     N/A     82 N/A N/A MISG        N/A
SHOALS AIRPORT SUNNY     86  51  29 W14       29.92F
SHOALS TVA RES   N/A     84 N/A N/A MISG        N/A
$$

ALZ005>007-016-282200-
NORTH CENTRAL ALABAMA

CITY           SKY/WX    TMP DP  RH WIND       PRES   REMARKS
CULLMAN AG STN   N/A     82 N/A N/A W8          N/A
DECATUR AP     MOSUNNY   83  56  39 SW9       29.92S
HUNTSVILLE AP  MOSUNNY   86  57  37 SW10      29.91F
HUN NWS/UAH      N/A     85  53  33 SW8         N/A
MERIDIANVILLE  MOSUNNY   82  52  34 SW10      29.92S
REDSTONE ARSN  MOSUNNY   85  58  40 W8        29.91F
VINEMONT AP    FAIR      83  58  42 W3        29.96S
$$

ALZ008>010-282200-
NORTHEAST ALABAMA

CITY           SKY/WX    TMP DP  RH WIND       PRES   REMARKS
ALBERTVILLE    SUNNY     82  64  54 W9        29.93F
FORT PAYNE     MOSUNNY   82  50  32 SW14      29.92F
SCOTTSBORO AP  MOSUNNY   82  57  42 SW9       29.92F
SCOTTSBORO HCN   N/A     82 N/A N/A MISG        N/A
VALLEY HEAD      N/A     81 N/A N/A MISG        N/A
$$

TNZ076-096-097-282200-
SOUTHEASTERN MIDDLE TENNESSEE

CITY           SKY/WX    TMP DP  RH WIND       PRES   REMARKS
TULLAHOMA      MOSUNNY   81  57  44 SW10      29.93S
WINCHESTER     MOSUNNY   82  55  39 W7        29.92S
$$

...SURROUNDING SITES...

CITY           SKY/WX    TMP DP  RH WIND       PRES   REMARKS
ATLANTA        MOSUNNY   83  59  44 SW8       29.93F
ANNISTON       SUNNY     85  58  39 W9        29.92F
BIRMINGHAM     MOSUNNY   83  58  42 CALM      29.95F
CHATTANOOGA    MOSUNNY   85  52  32 W9G20     29.90S
DALTON         MOSUNNY   82  59  44 CALM      29.91F
GADSDEN        MOSUNNY   86  60  41 W10       29.92F
GOLDEN TRNGL   MOSUNNY   88  61  40 SW5       29.91S
HALEYVILLE     FAIR      84  59  42 VRB6      29.96S
JACKSON TN     SUNNY     81  53  37 W9        29.92F
MEMPHIS        MOSUNNY   84  53  34 N3        29.93F
NASHVILLE      PTSUNNY   83  53  35 W10G18    29.89F
OXFORD MS      FAIR      82  57  42 W7        29.94F
ROME           MOSUNNY   86  57  37 W9        29.90F
SAVANNAH       SUNNY     82  59  44 NW5G15    29.91S
TUPELO         SUNNY     86  54  33 VRB3      29.91F
TUSCALOOSA     SUNNY     85  59  41 SW7       29.92F
$$

...GULF COAST WEATHER...

CITY           SKY/WX    TMP DP  RH WIND       PRES   REMARKS
GULFPORT       SUNNY     78  69  73 S9        29.93S
PASCAGOULA     CLOUDY    80  66  62 S10       29.94F
MOBILE         CLOUDY    78  66  66 CALM      29.96F
GULF SHORES    CLOUDY    73  64  71 N8        29.93F
PENSACOLA      PTSUNNY   77  60  55 W5        29.94F
DESTIN         CLOUDY    79  68  69 S7        29.95F
PANAMA CITY    CLOUDY    79  74  84 S9        29.97S
APPALACHICOLA  PTSUNNY   79  76  90 S9        29.99R
$$




USA.gov is the U.S. government's official web portal to all federal, state and local government web resources and services.